TimeCDT,TemperatureF,Dew PointF,Humidity,Sea Level PressureIn,VisibilityMPH,Wind Direction,Wind SpeedMPH,Gust SpeedMPH,PrecipitationIn,Events,Conditions,WindDirDegrees,DateUTC
12:14 AM,35.6,23.0,60,29.87,10.0,Calm,Calm,-,N/A,,Clear,0,2012-10-08 05:14:00
12:35 AM,35.6,21.2,56,29.87,10.0,South,3.5,-,N/A,,Clear,170,2012-10-08 05:35:00
12:54 AM,35.6,23.0,60,29.87,10.0,SE,4.6,-,N/A,,Clear,140,2012-10-08 05:54:00
1:14 AM,37.4,23.0,56,29.87,10.0,SSE,3.5,-,N/A,,Clear,150,2012-10-08 06:14:00
1:35 AM,37.4,21.2,52,29.87,10.0,South,5.8,-,N/A,,Clear,170,2012-10-08 06:35:00
1:54 AM,33.8,21.2,60,29.86,10.0,South,6.9,-,N/A,,Clear,190,2012-10-08 06:54:00
2:14 AM,32.0,21.2,64,29.86,10.0,South,3.5,-,N/A,,Clear,180,2012-10-08 07:14:00
2:34 AM,33.8,23.0,65,29.86,10.0,South,4.6,-,N/A,,Clear,180,2012-10-08 07:34:00
2:54 AM,32.0,23.0,69,29.86,10.0,SSW,3.5,-,N/A,,Clear,200,2012-10-08 07:54:00
3:15 AM,33.8,23.0,65,29.85,10.0,Calm,Calm,-,N/A,,Scattered Clouds,0,2012-10-08 08:15:00
3:34 AM,35.6,24.8,65,29.84,10.0,Calm,Calm,-,N/A,,Mostly Cloudy,0,2012-10-08 08:34:00
3:54 AM,35.6,24.8,65,29.83,10.0,Calm,Calm,-,N/A,,Mostly Cloudy,0,2012-10-08 08:54:00
4:15 AM,37.4,26.6,65,29.83,10.0,South,4.6,-,N/A,,Overcast,180,2012-10-08 09:15:00
4:34 AM,37.4,26.6,65,29.82,10.0,South,3.5,-,N/A,,Overcast,190,2012-10-08 09:34:00
4:54 AM,39.2,26.6,61,29.82,10.0,South,4.6,-,N/A,,Overcast,180,2012-10-08 09:54:00
5:15 AM,41.0,26.6,57,29.82,10.0,South,6.9,-,N/A,,Overcast,190,2012-10-08 10:15:00
5:34 AM,41.0,26.6,57,29.81,10.0,South,6.9,-,N/A,,Overcast,180,2012-10-08 10:34:00
5:54 AM,41.0,26.6,57,29.81,10.0,SSW,3.5,-,N/A,,Mostly Cloudy,200,2012-10-08 10:54:00
6:15 AM,41.0,26.6,57,29.80,10.0,South,4.6,-,N/A,,Overcast,180,2012-10-08 11:15:00
6:34 AM,41.0,26.6,57,29.80,10.0,South,5.8,-,N/A,,Overcast,180,2012-10-08 11:34:00
6:54 AM,42.8,26.6,53,29.79,10.0,South,6.9,-,N/A,,Overcast,180,2012-10-08 11:54:00
7:14 AM,42.8,26.6,53,29.79,10.0,South,6.9,-,N/A,,Mostly Cloudy,180,2012-10-08 12:14:00
7:34 AM,42.8,26.6,53,29.78,10.0,South,10.4,-,N/A,,Scattered Clouds,190,2012-10-08 12:34:00
7:54 AM,42.8,26.6,53,29.78,10.0,SSW,8.1,-,N/A,,Clear,200,2012-10-08 12:54:00
8:14 AM,42.8,28.4,57,29.78,10.0,South,8.1,-,N/A,,Clear,190,2012-10-08 13:14:00
8:34 AM,42.8,28.4,57,29.78,10.0,South,6.9,-,N/A,,Scattered Clouds,190,2012-10-08 13:34:00
8:54 AM,44.6,28.4,53,29.78,10.0,SSW,8.1,-,N/A,,Scattered Clouds,200,2012-10-08 13:54:00
9:14 AM,46.4,28.4,50,29.77,10.0,SSW,9.2,-,N/A,,Scattered Clouds,200,2012-10-08 14:14:00
9:35 AM,46.4,28.4,50,29.76,10.0,SSW,11.5,-,N/A,,Scattered Clouds,200,2012-10-08 14:35:00
9:54 AM,48.2,28.4,46,29.75,10.0,South,11.5,-,N/A,,Scattered Clouds,190,2012-10-08 14:54:00
10:14 AM,51.8,28.4,41,29.75,10.0,SSW,15.0,20.7,N/A,,Scattered Clouds,210,2012-10-08 15:14:00
10:34 AM,51.8,28.4,41,29.75,10.0,SW,17.3,-,N/A,,Scattered Clouds,220,2012-10-08 15:34:00
10:54 AM,53.6,28.4,38,29.74,10.0,SW,16.1,-,N/A,,Mostly Cloudy,220,2012-10-08 15:54:00
11:14 AM,55.4,26.6,33,29.74,10.0,SSW,17.3,21.9,N/A,,Mostly Cloudy,210,2012-10-08 16:14:00
11:34 AM,59.0,26.6,29,29.73,10.0,SW,17.3,23.0,N/A,,Mostly Cloudy,230,2012-10-08 16:34:00
11:54 AM,59.0,26.6,29,29.72,10.0,SW,18.4,-,N/A,,Overcast,220,2012-10-08 16:54:00
12:14 PM,59.0,26.6,29,29.71,10.0,SW,16.1,-,N/A,,Mostly Cloudy,220,2012-10-08 17:14:00
12:34 PM,62.6,26.6,26,29.71,10.0,SW,19.6,25.3,N/A,,Scattered Clouds,230,2012-10-08 17:34:00
12:54 PM,64.4,26.6,24,29.70,10.0,SW,19.6,23.0,N/A,,Clear,220,2012-10-08 17:54:00
1:15 PM,64.4,26.6,24,29.69,10.0,WSW,21.9,28.8,N/A,,Clear,250,2012-10-08 18:15:00
1:34 PM,66.2,26.6,23,29.68,10.0,WSW,20.7,26.5,N/A,,Scattered Clouds,250,2012-10-08 18:34:00
1:54 PM,68.0,26.6,21,29.68,10.0,WSW,18.4,25.3,N/A,,Mostly Cloudy,250,2012-10-08 18:54:00
2:15 PM,66.2,26.6,23,29.68,10.0,West,24.2,28.8,N/A,,Mostly Cloudy,260,2012-10-08 19:15:00
2:34 PM,66.2,28.4,24,29.68,10.0,West,20.7,25.3,N/A,,Scattered Clouds,270,2012-10-08 19:34:00
2:54 PM,68.0,28.4,23,29.67,10.0,WSW,20.7,25.3,N/A,,Clear,250,2012-10-08 19:54:00
3:15 PM,69.8,30.2,23,29.67,10.0,West,23.0,29.9,N/A,,Clear,270,2012-10-08 20:15:00
3:34 PM,69.8,32.0,25,29.67,10.0,West,26.5,31.1,N/A,,Clear,270,2012-10-08 20:34:00
3:54 PM,69.8,32.0,25,29.67,10.0,West,20.7,28.8,N/A,,Clear,280,2012-10-08 20:54:00
4:14 PM,69.8,33.8,27,29.67,10.0,West,21.9,29.9,N/A,,Scattered Clouds,280,2012-10-08 21:14:00
4:34 PM,68.0,35.6,30,29.68,10.0,West,18.4,27.6,N/A,,Clear,280,2012-10-08 21:34:00
4:55 PM,68.0,35.6,30,29.68,10.0,WNW,23.0,28.8,N/A,,Clear,290,2012-10-08 21:55:00
5:14 PM,66.2,35.6,32,29.69,10.0,WNW,19.6,25.3,N/A,,Scattered Clouds,290,2012-10-08 22:14:00
5:34 PM,64.4,35.6,34,29.70,7.0,WNW,17.3,-,N/A,,Scattered Clouds,290,2012-10-08 22:34:00
5:54 PM,64.4,35.6,34,29.70,7.0,NW,15.0,21.9,N/A,,Scattered Clouds,320,2012-10-08 22:54:00
6:14 PM,62.6,35.6,37,29.71,10.0,NW,11.5,-,N/A,,Clear,310,2012-10-08 23:14:00
6:34 PM,62.6,35.6,37,29.72,10.0,NNW,10.4,17.3,N/A,,Scattered Clouds,330,2012-10-08 23:34:00
6:54 PM,60.8,37.4,42,29.74,10.0,NNW,10.4,20.7,N/A,,Clear,330,2012-10-08 23:54:00
7:35 PM,60.8,37.4,42,29.76,10.0,NW,9.2,-,N/A,,Mostly Cloudy,320,2012-10-09 00:35:00
7:54 PM,59.0,37.4,45,29.77,10.0,NW,12.7,18.4,N/A,Rain,Light Rain,310,2012-10-09 00:54:00
8:14 PM,59.0,37.4,45,29.78,10.0,NW,11.5,18.4,N/A,,Light Drizzle,310,2012-10-09 01:14:00
8:35 PM,57.2,39.2,51,29.78,10.0,WNW,10.4,-,N/A,,Drizzle,300,2012-10-09 01:35:00
8:54 PM,53.6,42.8,67,29.79,10.0,WNW,11.5,-,N/A,Rain,Light Rain,290,2012-10-09 01:54:00
9:14 PM,53.6,44.6,72,29.78,10.0,WNW,6.9,-,N/A,Rain,Light Rain,290,2012-10-09 02:14:00
9:34 PM,51.8,44.6,76,29.79,10.0,WNW,4.6,-,N/A,Rain,Light Rain,290,2012-10-09 02:34:00
9:54 PM,50.0,44.6,82,29.79,10.0,WSW,5.8,-,N/A,,Mostly Cloudy,250,2012-10-09 02:54:00
10:14 PM,50.0,44.6,82,29.79,10.0,WSW,6.9,-,N/A,,Mostly Cloudy,240,2012-10-09 03:14:00
10:55 PM,48.2,42.8,82,29.79,10.0,WSW,6.9,-,N/A,,Scattered Clouds,250,2012-10-09 03:55:00
11:34 PM,50.0,42.8,76,29.78,10.0,WSW,5.8,-,N/A,,Overcast,250,2012-10-09 04:34:00
11:54 PM,50.0,42.8,76,29.78,10.0,Calm,Calm,-,N/A,,Overcast,0,2012-10-09 04:54:00